DELCH EDWN-EDWN

Flight info

Callsign DELCH
Flight time 0h 5m
Altitude 1000
Route VFR
Aircraft BR23/L-S/L

Departure

Time 2026-04-21 18:26
Airport Flugplatz Nordhorn-Lingen (EDWN)

Arrival

Time 2026-04-21 18:31
Airport Flugplatz Nordhorn-Lingen (EDWN)
Time Latitude Longitude Altitude Speed Heading
2026-04-21 18:19 52.45728 7.17451 89 ft 0 kts 231°
2026-04-21 18:22 52.45726 7.17447 89 ft 3 kts 208°
2026-04-21 18:22 52.45695 7.17464 90 ft 6 kts 149°
2026-04-21 18:22 52.45646 7.17518 89 ft 8 kts 152°
2026-04-21 18:23 52.45609 7.17543 88 ft 6 kts 155°
2026-04-21 18:23 52.45553 7.17599 89 ft 9 kts 145°
2026-04-21 18:23 52.45545 7.17658 90 ft 5 kts 55°
2026-04-21 18:23 52.45556 7.17701 91 ft 0 kts 129°
2026-04-21 18:25 52.45533 7.17736 91 ft 7 kts 118°
2026-04-21 18:25 52.45566 7.17841 91 ft 29 kts 55°
2026-04-21 18:26 52.45750 7.18269 113 ft 54 kts 56°
2026-04-21 18:26 52.45972 7.18795 310 ft 55 kts 55°
2026-04-21 18:26 52.46199 7.19350 506 ft 61 kts 55°
2026-04-21 18:26 52.46447 7.19914 756 ft 62 kts 56°
2026-04-21 18:27 52.46717 7.20552 850 ft 76 kts 57°
2026-04-21 18:27 52.47022 7.21290 837 ft 78 kts 62°
2026-04-21 18:27 52.46948 7.22126 805 ft 87 kts 129°
2026-04-21 18:27 52.46478 7.22751 773 ft 85 kts 128°
2026-04-21 18:28 52.46071 7.23464 738 ft 87 kts 132°
2026-04-21 18:28 52.45504 7.23822 720 ft 96 kts 177°
2026-04-21 18:28 52.44927 7.23277 718 ft 97 kts 228°
2026-04-21 18:28 52.44506 7.22462 746 ft 94 kts 228°
2026-04-21 18:29 52.44138 7.21581 761 ft 93 kts 239°
2026-04-21 18:29 52.43801 7.20657 779 ft 97 kts 235°
2026-04-21 18:29 52.43414 7.19737 804 ft 99 kts 234°
2026-04-21 18:29 52.42972 7.18861 804 ft 100 kts 230°
2026-04-21 18:30 52.42571 7.17928 787 ft 99 kts 250°
2026-04-21 18:30 52.42698 7.16936 748 ft 88 kts 322°
2026-04-21 18:30 52.43178 7.16413 720 ft 80 kts 338°
2026-04-21 18:30 52.43663 7.16008 703 ft 78 kts 340°
2026-04-21 18:31 52.44214 7.15618 641 ft 87 kts 349°
2026-04-21 18:31 52.44681 7.15901 408 ft 66 kts 42°
2026-04-21 18:31 52.44969 7.16432 324 ft 59 kts 60°
2026-04-21 18:31 52.45174 7.16922 276 ft 49 kts 55°
2026-04-21 18:32 52.45369 7.17384 186 ft 50 kts 56°
2026-04-21 18:32 52.45571 7.17852 91 ft 43 kts 55°
2026-04-21 18:32 52.45719 7.18199 90 ft 51 kts 55°
2026-04-21 18:32 52.45956 7.18764 281 ft 58 kts 57°
2026-04-21 18:33 52.46172 7.19309 550 ft 54 kts 53°
2026-04-21 18:33 52.46428 7.19858 653 ft 73 kts 52°
2026-04-21 18:33 52.46737 7.20480 852 ft 65 kts 53°
2026-04-21 18:33 52.47002 7.21000 1158 ft 56 kts 52°
2026-04-21 18:34 52.47248 7.21476 1400 ft 54 kts 52°
2026-04-21 18:34 52.47494 7.21942 1613 ft 54 kts 52°
2026-04-21 18:34 52.47740 7.22404 1822 ft 54 kts 52°
2026-04-21 18:34 52.47996 7.22879 1991 ft 60 kts 52°
2026-04-21 18:35 52.48201 7.23270 2000 ft 74 kts 52°
2026-04-21 18:35 52.48674 7.24189 2014 ft 82 kts 52°
2026-04-21 18:35 52.49058 7.24912 2014 ft 85 kts 52°
2026-04-21 18:35 52.49451 7.25649 2014 ft 86 kts 54°
2026-04-21 18:36 52.49467 7.26550 2009 ft 93 kts 122°
2026-04-21 18:36 52.48798 7.26819 2012 ft 107 kts 176°
2026-04-21 18:36 52.48061 7.26775 2010 ft 107 kts 173°
2026-04-21 18:36 52.47320 7.26745 2011 ft 106 kts 173°
2026-04-21 18:37 52.46581 7.26715 2009 ft 107 kts 173°
2026-04-21 18:37 52.45840 7.26684 2008 ft 107 kts 173°
2026-04-21 18:37 52.45093 7.26656 2008 ft 107 kts 173°
2026-04-21 18:37 52.44360 7.26623 2008 ft 105 kts 173°
2026-04-21 18:38 52.43625 7.26586 2008 ft 106 kts 176°
2026-04-21 18:38 52.42995 7.25900 2002 ft 116 kts 233°
2026-04-21 18:38 52.42542 7.24813 2006 ft 116 kts 232°
2026-04-21 18:38 52.42066 7.23730 2009 ft 117 kts 232°
2026-04-21 18:39 52.41583 7.22787 2131 ft 104 kts 220°
2026-04-21 18:39 52.41109 7.22032 2361 ft 91 kts 217°
2026-04-21 18:39 52.40746 7.21193 2362 ft 96 kts 281°
2026-04-21 18:39 52.41138 7.20565 2343 ft 77 kts
2026-04-21 18:40 52.41425 7.20790 2343 ft 67 kts 59°
2026-04-21 18:40 52.41287 7.21470 2361 ft 80 kts 142°
2026-04-21 18:40 52.40715 7.21235 2407 ft 101 kts 225°
2026-04-21 18:40 52.40378 7.20281 2421 ft 92 kts 238°
2026-04-21 18:41 52.40085 7.19422 2358 ft 85 kts 240°
2026-04-21 18:41 52.39801 7.18639 2343 ft 71 kts 237°
2026-04-21 18:41 52.39782 7.17635 2092 ft 93 kts 310°
2026-04-21 18:41 52.40224 7.17471 2310 ft 59 kts 12°
2026-04-21 18:42 52.40650 7.17406 2417 ft 70 kts 359°
2026-04-21 18:42 52.41134 7.17259 2442 ft 66 kts 31°
2026-04-21 18:42 52.41440 7.17793 2436 ft 65 kts 52°
2026-04-21 18:42 52.41768 7.18289 2422 ft 70 kts 43°
2026-04-21 18:43 52.42212 7.18884 2289 ft 99 kts 45°
2026-04-21 18:43 52.42698 7.19355 2602 ft 76 kts 342°
2026-04-21 18:43 52.42583 7.18547 2694 ft 15 kts 131°
2026-04-21 18:43 52.42773 7.19172 1975 ft 93 kts 72°
2026-04-21 18:44 52.42867 7.20054 2227 ft 77 kts 77°
2026-04-21 18:44 52.42903 7.20897 2278 ft 71 kts 91°
2026-04-21 18:44 52.42427 7.21271 2236 ft 114 kts 185°
2026-04-21 18:44 52.41738 7.20476 2110 ft 134 kts 236°
2026-04-21 18:45 52.41555 7.18965 1856 ft 140 kts 280°
2026-04-21 18:45 52.41910 7.17498 1428 ft 141 kts 314°
2026-04-21 18:45 52.42659 7.16542 998 ft 136 kts 333°
2026-04-21 18:45 52.43458 7.15796 660 ft 124 kts 336°
2026-04-21 18:46 52.44165 7.15315 629 ft 99 kts 355°
2026-04-21 18:46 52.44683 7.15771 559 ft 93 kts 54°
2026-04-21 18:46 52.45018 7.16556 367 ft 77 kts 55°
2026-04-21 18:46 52.45294 7.17204 245 ft 61 kts 54°
2026-04-21 18:47 52.45517 7.17729 109 ft 55 kts 52°
2026-04-21 18:47 52.45700 7.18153 87 ft 31 kts 58°
2026-04-21 18:47 52.45773 7.18256 86 ft 8 kts 327°
2026-04-21 18:47 52.45777 7.18197 86 ft 13 kts 232°
2026-04-21 18:48 52.45717 7.18059 87 ft 21 kts 234°